Victoria, TX

5:50 AM CDT on October 19, 2019 (GMT -0500)
Victoria Regional

Weather History for KVCT - August, 2019

Change the Weather History Date:

Monday, August 26, 2019

  Actual Average Record
Temperature  
Mean Temperature 89 °F 84 °F  
Max Temperature 100 °F 95 °F 104 °F (1924)
Min Temperature 78 °F 73 °F 65 °F (1926)
Degree Days  
Heating Degree Days 0 0  
Month to date heating degree days 0 0  
Since 1 June heating degree days 0 0  
Since 1 July heating degree days 0 0  
Cooling Degree Days 24 19  
Month to date cooling degree days 601 512  
Year to date cooling degree days 2554 2265  
Since 1 June cooling degree days 1786 1606  
Growing Degree Days 39 (Base 50)    
Moisture  
Dew Point 77 °F    
Average Humidity 75    
Maximum Humidity 97    
Minimum Humidity 44    
Precipitation  
Precipitation 0.00 in 0.11 in 7.58 in (2017)
Month to date precipitation 0.87 2.22  
Year to date precipitation 15.51 26.24  
Snow  
Snow 0.00 in 0.00 in 0.00 in (2002)
Month to date snowfall 0.0 0.0  
Since 1 June snowfall 0.0 0.0  
Since 1 July snowfall 0.0 0.0  
Snow Depth 0.00 in    
Sea Level Pressure  
Sea Level Pressure 29.80 in    
Wind  
Wind Speed 9 mph ()    
Max Wind Speed 23 mph    
Max Gust Speed 28 mph    
Visibility 8.8 miles    
Events      
T = Trace of Precipitation, MM = Missing Value Source: Averaged Metar Reports

Daily Weather History Graph

Daily Weather History Graph

Search for Another Location

Airport or City:

Astronomy

Aug. 26, 2019 Rise Set
Actual Time 7:02 AM CDT 7:56 PM CDT
Civil Twilight 6:38 AM CDT 8:20 PM CDT
Nautical Twilight 6:09 AM CDT 8:49 PM CDT
Astronomical Twilight 5:40 AM CDT 9:18 PM CDT
Moon 2:45 AM CDT (8/26) 5:03 PM CDT (8/26)
Length of Visible Light 13h 42m
Length of Day
12h 53m
Waning Crescent, 19% of the Moon is Illuminated
Aug 26
Waning Crescent
Aug 30
New
Sep 5
First Quarter
Sep 13
Full
Sep 21
Last Quarter

Hourly Weather History & Observations

Time (CDT) Temp. Heat Index Dew Point Humidity Pressure Visibility Wind Dir Wind Speed Gust Speed Precip Events Conditions
12:51 AM 82.0 °F 91.0 °F 78.1 °F 88% 29.81 in 10.0 mi South 6.9 mph - N/A   Clear
1:51 AM 81.0 °F 87.9 °F 77.0 °F 88% 29.80 in 10.0 mi SSE 5.8 mph - N/A   Clear
2:51 AM 80.1 °F 85.8 °F 77.0 °F 90% 29.79 in 10.0 mi South 5.8 mph - N/A   Clear
3:51 AM 80.1 °F 85.8 °F 77.0 °F 90% 29.79 in 10.0 mi South 4.6 mph - N/A   Clear
4:51 AM 79.0 °F - 75.9 °F 90% 29.79 in 7.0 mi SE 4.6 mph - N/A   Clear
5:51 AM 79.0 °F - 77.0 °F 94% 29.79 in 6.0 mi SE 5.8 mph - N/A   Clear
6:16 AM 78.1 °F - 77.0 °F 96% 29.80 in 6.0 mi SE 4.6 mph - N/A   Mostly Cloudy
7:24 AM 79.0 °F - 77.0 °F 94% 29.81 in 4.0 mi SE 5.8 mph - N/A   Scattered Clouds
7:34 AM 79.0 °F - 78.1 °F 97% 29.81 in 4.0 mi SE 4.6 mph - N/A   Mostly Cloudy
7:51 AM 80.1 °F 86.4 °F 78.1 °F 94% 29.82 in 4.0 mi ESE 3.5 mph - N/A   Overcast
8:51 AM 84.0 °F 97.3 °F 80.1 °F 88% 29.83 in 7.0 mi SSE 10.4 mph - N/A   Overcast
9:06 AM 84.9 °F 97.5 °F 79.0 °F 82% 29.84 in 8.0 mi South 11.5 mph - N/A   Overcast
9:23 AM 88.0 °F 101.3 °F 78.1 °F 72% 29.84 in 10.0 mi South 17.3 mph 21.9 mph N/A   Overcast
10:07 AM 90.0 °F 101.3 °F 75.9 °F 63% 29.84 in 10.0 mi South 17.3 mph - N/A   Mostly Cloudy
10:51 AM 93.0 °F 104.6 °F 75.0 °F 56% 29.83 in 10.0 mi South 17.3 mph - N/A   Mostly Cloudy
11:51 AM 95.0 °F 106.7 °F 75.0 °F 52% 29.82 in 10.0 mi South 11.5 mph - N/A   Partly Cloudy
12:51 PM 98.1 °F 109.5 °F 73.9 °F 46% 29.80 in 10.0 mi South 18.4 mph 23.0 mph N/A   Scattered Clouds
1:51 PM 98.1 °F 108.0 °F 73.0 °F 44% 29.78 in 10.0 mi South 16.1 mph 24.2 mph N/A   Scattered Clouds
2:51 PM 98.1 °F 108.0 °F 73.0 °F 44% 29.76 in 10.0 mi South 17.3 mph 24.2 mph N/A   Partly Cloudy
3:51 PM 98.1 °F 111.2 °F 75.0 °F 48% 29.74 in 10.0 mi SSE 19.6 mph 26.5 mph N/A   Mostly Cloudy
4:51 PM 96.1 °F 109.4 °F 75.9 °F 52% 29.73 in 10.0 mi SSE 18.4 mph - N/A   Partly Cloudy
5:51 PM 93.0 °F 108.9 °F 78.1 °F 62% 29.73 in 10.0 mi SSE 20.7 mph 26.5 mph N/A   Partly Cloudy
6:51 PM 90.0 °F 102.5 °F 77.0 °F 65% 29.74 in 10.0 mi SSE 20.7 mph - 0.00 in   Clear
7:51 PM 87.1 °F 98.8 °F 77.0 °F 72% 29.76 in 9.0 mi SSE 19.6 mph - N/A   Clear
8:51 PM 86.0 °F 98.3 °F 78.1 °F 77% 29.79 in 10.0 mi SSE 16.1 mph - N/A   Scattered Clouds
9:32 PM 84.9 °F 96.6 °F 78.1 °F 80% 29.81 in 10.0 mi SSE 12.7 mph - N/A   Mostly Cloudy
9:51 PM 84.9 °F 96.6 °F 78.1 °F 80% 29.81 in 10.0 mi SSE 13.8 mph - N/A   Mostly Cloudy
10:51 PM 84.0 °F 94.8 °F 78.1 °F 82% 29.83 in 10.0 mi SSE 12.7 mph - N/A   Mostly Cloudy
11:14 PM 84.0 °F 94.8 °F 78.1 °F 82% 29.84 in 10.0 mi SSE 10.4 mph - N/A   Scattered Clouds
11:51 PM 82.9 °F 91.8 °F 77.0 °F 82% 29.83 in 10.0 mi SSE 10.4 mph - N/A   Clear